Regional Weather Roundup
Issued by NWS

Home | Current Version | Previous Version | Graphics & Text | Print | Product List | Glossary On
Versions: 1 2 3 4 5 6 7 8 9 10 11 12 13 14 15 16 17 18 19 20 21 22 23 24 25 26 27 28 29 30 31 32 33 34 35 36 37 38 39 40 41 42 43 44 45 46 47 48 49 50
000
ASUS43 KMKX 280900
RWRWI

WISCONSIN REGIONAL WEATHER ROUNDUP
NATIONAL WEATHER SERVICE MILWAUKEE/SULLIVAN WI
400 AM CDT MON JUL 28 2014

NOTE: "FAIR" INDICATES FEW OR NO CLOUDS BELOW 12,000 FEET WITH NO
SIGNIFICANT WEATHER AND/OR OBSTRUCTIONS TO VISIBILITY.

WIZ001-002-006>008-014>016-023>028-281000-
NORTHWEST WISCONSIN

CITY           SKY/WX    TMP DP  RH WIND       PRES   REMARKS
SUPERIOR ARPT  CLOUDY    53  53  99 CALM      30.14R
ASHLAND        MOCLDY    51  49  92 W5        30.13R
HAYWARD        FOG       46  45  96 CALM      30.14S VSB 1/2
SIREN          CLOUDY    56  55  97 CALM      30.15R
RICE LAKE      CLOUDY    55  54  94 CALM      30.16R
LADYSMITH      CLEAR     54  52  94 N7        30.14S
EAU CLAIRE     NOT AVBL
MENOMONIE      CLOUDY    57  55  93 CALM      30.13S
NEW RICHMOND   MOCLDY    56  56  98 CALM      30.15R
OSCEOLA        PTCLDY    57  57 100 CALM      30.17R FOG
$$

WIZ003>005-009-010-017-018-281000-
NORTH CENTRAL WISCONSIN

CITY           SKY/WX    TMP DP  RH WIND       PRES   REMARKS
WOODRUFF       CLEAR     46  43  91 CALM      30.10R
RHINELANDER    CLEAR     50  48  93 NW3       30.09R
EAGLE RIVER    CLEAR     45  45 100 CALM      30.08R
LAND O LAKES   CLEAR     49  46  87 N6        30.10R
PHILLIPS       CLEAR     46  46 100 CALM      30.11S FOG
TOMAHAWK       CLEAR     46  45  95 W5        30.11R
MEDFORD        CLEAR     49  48  94 NW6       30.11R
MERRILL        CLEAR     49  49  98 NW5       30.09R
$$

WIZ029-030-035-036-043>047-281000-
CENTRAL WISCONSIN

CITY           SKY/WX    TMP DP  RH WIND       PRES   REMARKS
WAUSAU         CLEAR     52  50  93 NW8       30.08R
MOSINEE        CLEAR     50  50 100 NW7       30.10R
MARSHFIELD     CLEAR     52  49  89 NW9       30.10R
STEVENS POINT  CLEAR     51  49  93 NW6       30.08R
WAUPACA        CLEAR     55  52  88 NW7       30.05R
WAUTOMA        NOT AVBL
WISC RAPIDS    CLEAR     54  50  86 MISG      30.09R
CAMP DOUGLAS   NOT AVBL
$$

WIZ011>013-019>022-031-037>040-048>050-281000-
NORTHEAST WISCONSIN

CITY           SKY/WX    TMP DP  RH WIND       PRES   REMARKS
ANTIGO         CLEAR     48  47  97 NW6       30.07S
STURGEON BAY   CLEAR     52  45  76 N18G26    29.99R
GREEN BAY      CLEAR     53  46  77 NW10      30.02R
MANITOWOC      NOT AVBL
APPLETON       CLEAR     52  48  87 N10       30.04R
CLINTONVILLE   CLEAR     52  48  87 NW6       30.05R
OSHKOSH        CLEAR     56  50  80 N12G22    30.02R
$$

WIZ032>034-041-042-053>061-281000-
SOUTHWEST WISCONSIN

CITY           SKY/WX    TMP DP  RH WIND       PRES   REMARKS
LA CROSSE      CLEAR     56  52  86 N8        30.11R
SPARTA         CLEAR     52  49  91 N3        30.11R
VIROQUA        FAIR      54  54  99 NW6       30.10S
BOSCOBEL       CLEAR     58  52  80 CALM      30.09R
PRAIRIE DU CHI CLEAR     60  51  74 NW7       30.09R
PLATTEVILLE    FAIR      57  54  88 N8        30.07R
$$

WIZ056-057-062-063-064-067-068-281000-
SOUTH CENTRAL WISCONSIN

CITY           SKY/WX    TMP DP  RH WIND       PRES   REMARKS
BARABOO/DELLS  CLEAR     54  51  88 NW6       30.06R
LONE ROCK      NOT AVBL
WATERTOWN      CLEAR     56  51  82 N10G16    30.00S
MADISON        CLEAR     57  51  80 NW7       30.04R
MIDDLETON      FAIR      57  53  85 N7        30.05R
MONROE         CLEAR     55  52  88 N9        30.03S
JANESVILLE     CLEAR     59  52  77 N7        30.00S
$$

WIZ051-052-058>065-066-070>072-281000-
SOUTHEAST WISCONSIN

CITY           SKY/WX    TMP DP  RH WIND       PRES   REMARKS
MILWAUKEE      PTCLDY    58  49  72 N13       29.97R
WAUKESHA       CLEAR     54  46  76 NW9       29.99S
MILWAUKEE/TIMM CLEAR     55  46  71 NW9       29.98S
RACINE         CLEAR     59  49  69 N12       29.97S
BURLINGTON     CLEAR     55  52  91 NW8       29.98S
KENOSHA        CLEAR     58  51  78 N9        29.96S
FOND DU LAC    CLEAR     55  48  77 N12       30.02R
SHEBOYGAN      CLEAR     55  47  74 N12       29.98R
WEST BEND      CLEAR     54  46  76 NW9       29.99S
JUNEAU         CLEAR     54  49  81 N8        30.02S
$$

LSZ147-162-281000-
LAKE SUPERIOR

STATION/POSITION TIME  TEMP    WIND        PRES    WAVE
                       AIR SEA DIR/SP/G            HT/PER
                 (UTC) (F)     (DEG/KT/KT) (MB)    (FT/S)
W MID LAKE BUOY  0750   48 42  270/  8/  8 1018.6R   1/ 4
PORT WING        0800   52     180/  4/  5 1020.0S
SAXON HARBOR     0800             CALM     1019.3R
$$

LMZ867-665-643>646-281000-
LAKE MICHIGAN

STATION/POSITION TIME  TEMP    WIND        PRES    WAVE
                       AIR SEA DIR/SP/G            HT/PER
                 (UTC) (F)     (DEG/KT/KT) (MB)    (FT/S)
N MID LAKE BUOY  0750   54 54  350/ 21/ 25 1013.1R   4/ 5
NORTHPORT PIER   0800   55     350/ 19/ 24 1015.2R
KEWAUNEE LAKESHO 0800   57     340/ 10/ 17 1015.3R
SHEBOYGAN LAKESH 0800   59     330/ 15/ 16 1014.7R
PORT WASHINGTON  0800   59     320/  6/ 10 1015.2
ATWATER BUOY     0800   61     340/ 14     1015.4R
MILWAUKEE LAKESH 0800   60     330/ 10/ 13   N/A
S MID LAKE BUOY  0750   60 60  340/ 23/ 27 1012.2R   7/ 7
KENOSHA   LAKESH 0800   61     340/ 13/ 16 1013.9R
$$

TC  - TEMPERATURE IN CELSIUS
VSB - VISIBILITY IN STATUTE MILES
WCI - WIND CHILL INDEX
HX  - HEAT INDEX



USA.gov is the U.S. government's official web portal to all federal, state and local government web resources and services.